Dewpoint
32 31 29 29 30 28 27 26 27 27 38 41 44 42 43 46 53 54 55 52 48 58 61 65 64 64 61 64 58 58 66 68 69 70 69 69 68 70 70 70 69 70 71 71
30 30 31 30 30 28 26 21 17 24 35 41 43 40 42 44 46 49 51 55 52 53 56 64 62 64 62 63 62 59 64 69 70 70 70 69 69 70 70 70 69 69 71 70
29 29 29 29 28 26 24 20 16 19 33 42 38 36 38 40 41 50 48 51 54 54 56 63 62 60 59 59 64 62 68 67 70 70 70 71 70 70 69 69 70 70 70 70
27 29 28 26 26 23 18 15 15 18 16 26 35 31 36 42 39 45 44 45 49 53 59 62 61 63 59 59 63 62 68 66 70 71 70 69 68 67 69 69 69 70 72 71
24 24 24 24 24 22 17 17 16 15 15 28 31 26 34 40 34 41 40 45 47 52 58 60 60 62 62 60 63 65 68 67 71 70 71 70 69 70 70 70 70 71 71 72
23 23 22 20 20 19 18 15 15 16 15 11 25 29 36 43 44 47 46 46 50 57 58 61 63 65 64 64 67 68 69 71 72 71 71 71 70 70 70 70 70 69 70 71
18 17 16 16 13 13 14 13 12 10 12 22 37 34 38 43 47 50 49 46 54 59 61 62 62 66 69 69 70 71 71 70 71 71 70 67 66 66 67 67 68 69 69 69
13 12 13 15 13 13 12 13 12 9 18 30 39 27 35 46 49 49 49 46 57 60 62 63 63 64 66 69 71 71 70 70 70 68 66 66 66 68 68 69 69 69 69 69
11 11 15 14 13 12 10 11 15 16 36 35 41 43 44 43 41 42 44 47 57 61 62 62 64 64 66 68 69 69 70 69 67 66 66 66 66 67 67 68 69 69 70 69
12 10 12 24 13 12 11 16 14 25 27 28 41 40 37 40 40 43 44 47 55 59 61 63 64 64 65 67 69 70 69 69 66 66 66 65 66 67 67 67 68 68 69 68
12 10 9 23 13 16 27 24 26 34 33 32 37 38 42 40 41 44 43 48 53 57 60 62 63 65 66 68 68 68 69 67 66 66 66 64 65 65 65 65 66 67 67 69
9 11 13 19 28 31 29 29 28 30 31 36 34 32 44 43 43 46 43 47 54 58 60 61 63 63 63 64 64 65 65 66 67 66 66 65 65 65 64 64 64 65 65 67
10 7 7 9 28 30 30 34 30 35 35 34 32 32 48 45 46 47 46 50 55 58 60 62 64 64 66 67 67 69 69 69 67 67 67 66 65 65 64 64 65 67 68 69
12 10 7 7 25 31 26 33 30 26 28 27 32 32 42 44 44 45 46 55 57 60 57 62 66 67 68 69 69 69 69 70 70 69 68 67 68 68 67 68 69 69 70 69
15 20 32 34 33 30 31 33 35 33 34 28 29 34 37 40 42 44 45 56 61 59 56 64 67 67 66 66 68 69 68 68 66 65 65 66 67 69 69 68 68 69 68 69
22 27 31 33 33 35 36 37 36 37 35 35 39 38 41 43 47 50 52 60 60 60 57 65 67 65 64 63 62 61 61 62 63 63 64 64 61 62 63 64 64 65 65 66
27 32 35 34 40 33 30 37 37 36 36 33 32 37 45 44 53 56 59 61 62 63 64 65 65 64 61 60 60 59 60 62 59 59 60 61 61 61 62 63 62 63 64 64
40 41 40 37 35 29 32 42 40 33 33 36 39 44 46 51 58 60 61 61 62 61 61 61 65 62 60 59 59 59 60 59 59 58 58 61 62 62 63 63 63 63 63 63
45 43 40 33 35 38 35 37 37 32 32 36 37 45 49 57 58 59 61 56 56 52 50 51 64 64 59 58 59 59 59 60 61 62 62 62 63 63 63 63 63 63 62 62
44 46 41 41 32 28 37 41 42 39 31 37 44 45 48 53 52 56 59 55 56 55 56 62 63 62 58 60 60 60 60 62 61 62 62 63 62 61 60 60 60 61 62 61
40 42 38 39 35 37 42 44 44 33 34 49 51 48 47 49 54 57 58 60 62 61 59 58 56 55 57 57 58 60 61 59 61 61 61 61 61 60 60 60 60 60 60 60
40 38 41 42 40 36 47 48 39 41 44 52 57 56 53 52 54 56 60 60 60 57 57 56 56 56 58 57 60 59 59 61 62 61 61 61 60 60 60 60 59 60 59 59
40 42 41 42 40 45 47 49 50 52 50 54 58 58 58 58 57 58 56 53 51 56 56 56 56 57 59 60 58 59 59 59 59 58 58 58 59 60 60 59 58 57 57 57
48 50 47 46 42 44 49 50 49 51 54 56 58 58 58 57 56 54 55 56 57 55 54 54 54 56 58 59 59 58 59 59 59 59 59 60 60 59 58 58 56 56 55 55
47 51 47 46 45 43 45 50 47 48 52 51 53 55 56 55 53 52 53 55 55 56 57 57 57 58 58 57 55 54 55 55 55 55 56 56 57 57 56 55 55 55 55 55
48 44 40 38 43 43 40 41 46 46 47 47 47 48 51 51 53 55 56 56 56 56 56 56 56 55 54 53 54 55 55 55 54 54 55 56 56 55 55 55 56 57 56 55
Wind_Speed
13 9 19 21 13 17 17 16 10 5 13 13 16 13 8 10 23 17 10 4 15 14 9 18 25 21 22 17 18 9 13 20 18 15 16 15 17 15 15 17 19 17 17 18
10 19 24 20 17 19 20 10 12 4 13 20 11 9 3 6 12 12 12 13 19 11 11 23 28 23 25 18 19 17 18 18 20 18 17 10 14 13 13 14 16 17 18 20
18 25 11 17 20 18 23 12 11 3 7 10 17 3 2 1 2 10 9 11 7 16 20 22 23 22 15 19 22 21 21 15 18 18 12 5 5 5 8 13 14 19 17 16
13 27 21 19 19 15 13 5 9 3 5 8 1 7 5 7 4 7 7 7 4 4 11 22 26 19 23 25 20 19 16 11 15 16 16 16 17 18 15 14 15 14 17 20
13 10 16 20 25 13 7 4 1 3 3 3 2 5 4 4 6 16 9 2 5 3 14 14 17 24 26 18 19 19 15 14 14 13 13 12 9 11 13 14 16 9 3 2
23 15 12 20 16 10 5 1 5 5 3 9 7 1 6 6 6 15 12 14 5 9 14 14 12 7 22 20 14 15 16 16 14 14 9 8 7 9 13 16 15 14 14 13
18 20 11 8 4 2 2 3 5 4 2 2 5 7 6 8 8 6 15 12 10 13 14 14 13 12 13 19 19 18 17 10 6 9 10 6 7 9 13 16 14 12 15 15
5 12 11 1 8 13 7 5 9 7 1 3 12 5 5 12 16 4 11 5 15 15 13 14 13 11 13 15 16 16 12 11 12 12 8 8 9 8 9 12 14 13 11 15
2 9 9 12 6 10 10 10 9 4 5 3 4 6 12 18 7 4 4 13 18 18 15 16 11 10 14 16 16 16 13 10 10 9 8 6 4 7 8 12 12 9 12 9
10 17 17 11 11 8 12 5 5 0 7 2 4 5 15 16 20 13 7 23 19 18 17 16 14 12 10 11 11 11 11 11 10 9 7 6 3 5 5 6 8 8 5 10
13 5 17 3 1 4 4 10 5 7 5 8 8 10 19 23 24 14 10 8 24 19 20 19 14 12 12 13 11 7 9 10 10 8 6 7 5 2 3 3 4 5 3 6
21 8 8 3 1 6 7 7 8 3 4 2 6 11 17 26 24 13 15 11 18 21 21 20 20 20 16 11 7 5 4 3 10 9 6 3 4 2 4 9 9 9 8 4
11 4 13 8 5 1 5 12 7 8 7 10 7 6 6 14 16 22 21 13 21 22 21 18 18 17 15 12 7 6 9 8 5 3 4 4 4 6 7 10 12 10 11 11
12 6 7 11 6 5 2 9 6 2 7 7 12 8 12 15 20 18 15 14 24 24 23 19 20 17 14 12 11 10 10 8 8 9 8 3 4 7 7 9 10 10 9 10
7 5 9 8 10 5 4 6 7 8 2 7 22 17 20 23 27 24 16 11 19 23 21 22 21 18 17 14 12 11 9 9 8 7 5 3 3 3 2 5 7 9 11 12
2 5 9 6 5 11 11 12 13 9 16 16 12 9 7 7 6 13 24 22 22 22 21 21 20 18 17 16 15 12 10 9 7 6 4 2 2 2 4 5 6 6 8 10
4 9 4 4 3 6 3 4 7 3 4 4 11 10 10 12 16 22 24 22 19 10 11 32 20 17 18 18 16 14 12 9 8 6 5 5 4 3 3 2 4 5 4 5
7 9 4 5 4 4 4 5 7 6 8 1 7 11 18 14 17 16 11 23 18 24 37 19 16 18 20 18 18 14 12 12 11 9 7 7 7 5 6 8 10 10 8 10
13 7 7 6 3 6 3 3 3 5 6 4 7 3 12 21 21 15 14 22 24 25 19 32 31 21 20 19 14 15 12 5 5 3 4 7 8 7 9 11 12 12 13 13
19 15 9 4 5 3 8 4 4 3 3 6 12 20 25 16 15 9 10 18 13 11 17 18 21 7 4 6 9 8 9 11 9 7 6 5 4 5 6 8 11 11 12 15
7 7 6 3 4 0 9 5 6 4 5 14 10 11 17 14 10 17 11 9 11 14 10 3 14 15 11 11 15 13 10 6 4 2 1 2 2 5 6 8 10 11 15 16
4 3 4 1 6 5 4 7 2 4 5 7 12 21 26 24 22 19 13 11 11 10 14 11 17 16 13 9 11 6 2 2 3 4 3 6 8 11 11 13 14 13 14 15
4 7 6 9 9 6 7 7 9 7 5 10 21 19 29 25 21 18 17 11 11 9 11 12 16 14 10 9 8 7 5 5 7 8 10 11 11 12 13 15 15 14 12 11
3 5 7 4 14 13 8 4 4 7 17 19 26 24 24 28 21 16 13 14 10 9 11 11 13 13 12 14 17 16 17 16 14 14 15 15 15 17 15 11 11 8 11 14
8 17 10 6 14 8 9 17 19 19 26 25 21 23 25 26 21 20 16 15 15 13 13 15 16 16 16 15 16 15 15 16 15 15 15 17 16 17 16 13 12 15 13 15
10 9 11 11 11 6 5 6 8 18 21 23 26 19 19 25 23 23 20 17 17 16 13 16 16 15 13 13 16 16 16 17 16 14 13 14 15 15 16 15 17 14 17 17
Wind_Direction
264 263 249 260 263 269 275 280 246 270 130 84 99 93 79 67 113 140 158 176 216 228 176 161 179 185 207 172 213 216 190 217 186 185 194 206 211 209 218 217 220 219 208 191
268 253 249 254 258 263 274 245 283 196 147 126 140 131 109 86 121 146 196 187 188 214 221 176 180 188 195 194 204 232 219 212 191 194 195 199 203 222 223 226 226 220 211 201
231 244 260 252 273 276 276 229 259 201 117 83 109 41 78 169 96 185 154 107 165 197 208 176 191 205 196 208 216 209 216 219 200 195 182 193 198 257 240 240 231 230 214 216
249 257 256 261 263 257 230 244 285 211 147 175 203 186 272 333 353 344 64 57 53 121 171 182 192 202 216 209 218 218 227 225 213 191 188 203 220 228 237 240 240 241 217 212
229 248 254 259 254 244 238 207 261 329 102 159 161 164 104 276 352 356 301 307 304 137 102 114 195 207 208 210 211 214 221 226 212 205 199 210 255 258 263 255 255 250 164 327
268 277 256 260 236 204 229 144 27 52 62 292 334 99 352 9 310 322 330 351 136 142 99 89 85 141 210 205 200 197 206 217 197 200 226 249 282 319 309 292 272 249 219 193
279 275 263 231 191 338 59 41 316 325 13 220 277 65 231 252 251 259 307 313 164 122 107 99 86 80 116 148 163 173 184 186 133 108 90 54 20 347 328 314 294 257 194 180
270 251 236 318 213 210 219 181 227 251 208 191 349 273 249 279 282 356 285 218 157 134 126 116 114 105 107 121 131 129 132 114 112 113 97 55 32 21 343 319 309 264 190 165
238 271 307 297 231 192 232 240 199 136 92 107 292 305 293 275 267 296 254 159 162 151 142 126 127 124 123 125 129 133 136 123 120 115 102 86 63 39 9 5 356 78 113 134
241 261 275 293 192 201 191 191 219 145 156 251 244 259 225 251 250 279 345 170 168 158 144 142 149 148 141 139 141 138 142 151 153 144 125 125 94 49 52 44 26 60 88 121
213 226 275 321 307 140 356 295 83 103 100 160 184 249 220 227 231 228 269 232 171 162 154 149 150 144 134 127 135 146 160 160 168 161 158 158 136 70 2 19 21 16 64 136
213 203 221 201 211 172 108 32 114 186 157 213 189 252 207 209 222 216 246 275 174 155 152 145 138 137 134 130 130 124 116 172 197 187 193 189 166 193 288 310 325 315 303 275
179 203 246 297 338 299 102 79 52 127 121 208 178 265 168 201 207 222 237 224 160 152 147 139 133 132 127 123 126 88 85 75 130 194 254 218 236 268 288 297 306 307 308 298
150 140 172 225 232 220 224 75 102 111 100 254 227 235 196 203 205 217 220 177 154 150 145 140 136 135 125 117 116 101 89 89 101 98 79 113 259 272 289 309 320 334 353 357
135 141 133 157 157 99 19 55 61 51 342 201 230 211 217 207 198 186 177 167 156 157 147 144 140 133 131 126 125 121 120 118 114 107 99 90 68 72 53 28 18 10 11 12
75 153 138 96 115 88 77 48 54 59 28 35 51 212 231 196 166 164 175 172 173 174 166 149 143 146 145 149 150 154 155 155 151 146 152 173 123 90 77 64 40 27 18 7
82 135 96 155 335 100 82 63 80 114 77 84 358 269 195 183 152 155 161 170 172 184 54 146 151 158 165 169 167 178 182 176 175 183 204 238 252 285 322 2 25 14 346 349
109 105 76 136 87 197 211 281 265 85 344 53 345 176 188 126 72 70 101 125 94 69 77 44 304 190 183 185 187 180 192 200 208 218 241 299 296 290 325 342 348 343 332 326
30 103 90 133 142 293 244 244 248 224 260 265 115 230 126 116 85 53 89 110 123 130 149 169 214 279 202 193 185 191 210 257 274 308 61 51 36 15 359 358 356 356 345 338
46 59 95 102 85 301 337 312 316 351 243 330 325 187 170 148 157 175 175 140 134 138 155 206 229 272 157 185 180 134 119 119 113 111 96 83 59 3 342 329 330 329 321 317
38 7 52 143 114 90 295 301 310 182 234 354 351 157 156 171 176 156 154 145 136 131 158 172 120 103 112 118 125 137 153 146 155 145 307 276 270 317 294 302 317 316 317 314
79 83 35 47 51 288 246 292 207 243 346 58 67 103 103 106 112 134 148 166 138 112 80 103 93 81 71 95 105 106 90 223 253 254 313 309 326 314 307 314 314 318 316 316
211 125 189 183 201 230 284 278 311 309 223 144 123 127 121 123 131 142 146 137 118 90 97 110 102 96 85 94 111 87 33 3 336 323 310 309 306 302 303 308 315 321 323 326
259 138 209 189 242 222 213 115 336 158 109 111 128 134 131 137 144 149 158 154 154 145 116 95 78 68 63 43 47 42 30 18 12 355 341 328 314 300 300 299 309 322 322 315
192 164 183 231 272 299 238 227 198 128 123 125 132 141 139 136 148 151 149 130 120 105 87 82 80 74 67 59 45 30 25 18 8 354 346 341 334 327 316 311 300 305 295 290
194 190 182 221 205 181 144 123 153 141 144 140 132 124 132 134 128 122 115 112 106 97 85 78 75 70 54 45 36 28 22 16 6 353 339 331 326 329 324 319 317 305 299 302